QFA4332 YMML-YSSY

Flight info

Callsign QFA4332
Flight time N/A
Altitude 37000
Route ML H129 DOSEL Y59 RIVET
Aircraft B738/M-SDE2E3FGHIRWXY/LB1

Departure

Time 2026-05-04 04:58
Airport Melbourne Airport (YMML)

Arrival

Time N/A
Airport Sydney Kingsford Smith International Airport (YSSY)
Time Latitude Longitude Altitude Speed Heading
2026-05-04 04:39 -37.67260 144.84714 442 ft 0 kts 171°
2026-05-04 04:47 -37.67202 144.84703 442 ft 1 kts 171°
2026-05-04 04:47 -37.67193 144.84703 442 ft 1 kts 223°
2026-05-04 04:47 -37.67189 144.84711 442 ft 0 kts 265°
2026-05-04 04:47 -37.67189 144.84720 442 ft 0 kts 263°
2026-05-04 04:49 -37.67189 144.84715 442 ft 2 kts 262°
2026-05-04 04:49 -37.67197 144.84656 442 ft 10 kts 261°
2026-05-04 04:50 -37.67211 144.84546 442 ft 13 kts 265°
2026-05-04 04:50 -37.67200 144.84424 442 ft 12 kts 270°
2026-05-04 04:50 -37.67214 144.84319 442 ft 11 kts 241°
2026-05-04 04:50 -37.67289 144.84286 442 ft 12 kts 174°
2026-05-04 04:51 -37.67376 144.84300 442 ft 13 kts 171°
2026-05-04 04:51 -37.67477 144.84320 442 ft 15 kts 171°
2026-05-04 04:51 -37.67591 144.84341 442 ft 16 kts 171°
2026-05-04 04:51 -37.67709 144.84364 442 ft 17 kts 172°
2026-05-04 04:52 -37.67835 144.84387 442 ft 17 kts 171°
2026-05-04 04:52 -37.67966 144.84412 442 ft 19 kts 171°
2026-05-04 04:52 -37.68102 144.84438 442 ft 19 kts 172°
2026-05-04 04:52 -37.68239 144.84462 442 ft 19 kts 171°
2026-05-04 04:53 -37.68372 144.84448 442 ft 19 kts 208°
2026-05-04 04:53 -37.68486 144.84355 442 ft 19 kts 213°
2026-05-04 04:53 -37.68548 144.84253 442 ft 0 kts 255°
2026-05-04 04:56 -37.68549 144.84250 442 ft 0 kts 255°
2026-05-04 04:56 -37.68552 144.84232 442 ft 4 kts 259°
2026-05-04 04:56 -37.68556 144.84170 442 ft 8 kts 276°
2026-05-04 04:57 -37.68518 144.84100 442 ft 11 kts 332°
2026-05-04 04:57 -37.68321 144.84058 442 ft 58 kts 352°
2026-05-04 04:57 -37.67654 144.83933 443 ft 130 kts 352°
2026-05-04 04:57 -37.66960 144.83791 476 ft 166 kts 351°
2026-05-04 04:58 -37.65736 144.83537 941 ft 186 kts 353°
2026-05-04 04:58 -37.64413 144.83284 1747 ft 199 kts 352°
2026-05-04 04:58 -37.62470 144.82922 2699 ft 219 kts 352°
2026-05-04 04:58 -37.60913 144.82643 3376 ft 234 kts 351°
2026-05-04 04:59 -37.59257 144.82330 4228 ft 242 kts 351°
2026-05-04 04:59 -37.57543 144.82442 5075 ft 253 kts 16°
2026-05-04 04:59 -37.55998 144.83578 5979 ft 262 kts 30°
2026-05-04 04:59 -37.54484 144.84851 6775 ft 267 kts 26°
2026-05-04 05:00 -37.52881 144.85986 7572 ft 272 kts 22°
2026-05-04 05:00 -37.51163 144.87091 8379 ft 277 kts 21°
2026-05-04 05:00 -37.47640 144.89258 9919 ft 288 kts 20°
2026-05-04 05:01 -37.45738 144.90408 10334 ft 308 kts 20°
2026-05-04 05:01 -37.43790 144.91904 10487 ft 341 kts 36°
2026-05-04 05:01 -37.42128 144.94257 10784 ft 367 kts 50°
2026-05-04 05:01 -37.41095 144.96078 11151 ft 375 kts 51°
2026-05-04 05:02 -37.40082 144.97905 11570 ft 380 kts 52°